DW8248 Weather Reports


Display with metric or nautical units.
time (UTC)temp
F
wind
direction
speed
MPH
gust
MPH
rain 1hr
in
rain 24hr
in
rain mn
in
humidity
%
barometer
mb
20240423194232 73 65 4.0 11.0 0.00 0.00 0.00 50 1021.1
20240423193210 73 62 5.0 11.0 0.00 0.00 0.00 50 1021.1
20240423192139 73 59 4.0 12.0 0.00 0.00 0.00 52 1021.2
20240423191133 73 36 6.0 12.0 0.00 0.00 0.00 52 1021.3
20240423190121 73 67 4.0 10.0 0.00 0.00 0.00 54 1021.4
20240423184005 73 49 5.0 12.0 0.00 0.00 0.00 54 1021.6
20240423182958 73 55 5.0 12.0 0.00 0.00 0.00 54 1021.7
20240423181940 73 87 5.0 12.0 0.00 0.00 0.00 55 1021.7
20240423180930 73 69 5.0 12.0 0.00 0.00 0.00 55 1021.8
20240423174756 73 38 6.0 12.0 0.00 0.00 0.00 54 1021.9
20240423173724 74 74 5.0 11.0 0.00 0.00 0.00 52 1022.1
20240423172716 74 60 4.0 9.0 0.00 0.00 0.00 54 1022.1
20240423171733 73 52 5.0 9.0 0.00 0.00 0.00 53 1022.1
20240423170708 74 42 6.0 12.0 0.00 0.00 0.00 53 1022.1
20240423165635 74 100 6.0 12.0 0.00 0.00 0.00 54 1022.3
20240423164634 74 45 7.0 13.0 0.00 0.00 0.00 52 1022.4
20240423163633 74 32 7.0 15.0 0.00 0.00 0.00 53 1022.4
20240423161453 74 72 6.0 13.0 0.00 0.00 0.00 52 1022.5
20240423160432 73 48 8.0 13.0 0.00 0.00 0.00 51 1022.5
20240423155419 74 38 7.0 14.0 0.00 0.00 0.00 51 1022.4
20240423154435 74 60 7.0 15.0 0.00 0.00 0.00 52 1022.4
20240423153417 73 51 7.0 17.0 0.00 0.00 0.00 53 1022.5
20240423152427 73 43 7.0 17.0 0.00 0.00 0.00 55 1022.4
20240423151407 72 69 7.0 14.0 0.00 0.00 0.00 54 1022.3
20240423150400 72 36 6.0 13.0 0.00 0.00 0.00 54 1022.3
20240423145419 72 98 6.0 13.0 0.00 0.00 0.00 56 1022.2
20240423144344 72 86 4.0 13.0 0.00 0.00 0.00 53 1022.2
20240423143401 72 76 4.0 10.0 0.00 0.00 0.00 53 1022.1
20240423142345 72 103 4.0 12.0 0.00 0.00 0.00 52 1022.0
20240423135046 73 68 5.0 14.0 0.00 0.00 0.00 49 1021.6
20240423134033 72 28 6.0 14.0 0.00 0.00 0.00 49 1021.6
20240423133003 72 77 7.0 15.0 0.00 0.00 0.00 52 1021.5
20240423132003 71 57 8.0 15.0 0.00 0.00 0.00 52 1021.3
20240423130954 72 42 7.0 14.0 0.00 0.00 0.00 51 1021.1
20240423125921 72 44 6.0 13.0 0.00 0.00 0.00 50 1020.8
20240423124859 72 60 7.0 16.0 0.00 0.00 0.00 51 1020.7
20240423123834 71 42 7.0 16.0 0.00 0.00 0.00 54 1020.6
20240423122825 71 55 5.0 12.0 0.00 0.00 0.00 55 1020.5
20240423121819 71 67 5.0 13.0 0.00 0.00 0.00 56 1020.4
20240423120828 70 83 5.0 13.0 0.00 0.00 0.00 54 1020.2
20240423115753 71 59 6.0 14.0 0.00 0.00 0.00 54 1020.2
20240423114725 71 57 6.0 14.0 0.00 0.00 0.00 52 1020.0
20240423113712 70 69 5.0 12.0 0.00 0.00 0.00 54 1020.0
20240423112640 70 44 8.0 14.0 0.00 0.00 0.00 54 1019.8
20240423111608 70 47 6.0 14.0 0.00 0.00 0.00 56 1019.7
20240423110629 70 46 7.0 15.0 0.00 0.00 0.00 56 1019.5
20240423105601 70 56 6.0 15.0 0.00 0.00 0.00 56 1019.5
20240423104612 70 53 7.0 13.0 0.00 0.00 0.00 56 1019.3
20240423103541 70 49 7.0 13.0 0.00 0.00 0.00 57 1019.2
20240423102556 70 49 7.0 16.0 0.00 0.00 0.00 59 1019.1
20240423101606 70 21 7.0 16.0 0.00 0.00 0.00 59 1019.1
20240423100620 70 51 6.0 13.0 0.00 0.00 0.00 61 1019.0
20240423095629 70 51 5.0 12.0 0.00 0.00 0.00 60 1018.9
20240423094632 70 52 5.0 13.0 0.00 0.00 0.00 60 1018.9
20240423093556 70 55 6.0 13.0 0.00 0.00 0.00 60 1018.8
20240423092610 70 63 6.0 14.0 0.00 0.00 0.00 61 1018.6
20240423091615 70 58 6.0 14.0 0.00 0.00 0.00 61 1018.6
20240423084350 70 25 4.0 8.0 0.00 0.00 0.00 59 1018.7
20240423083318 69 14 2.0 6.0 0.00 0.00 0.00 59 1018.7
20240423082319 69 34 3.0 7.0 0.00 0.00 0.00 58 1018.6
20240423080105 69 15 5.0 11.0 0.00 0.00 0.00 56 1018.6
20240423075059 69 32 6.0 11.0 0.00 0.00 0.00 56 1018.5
20240423074034 69 29 5.0 11.0 0.00 0.00 0.00 57 1018.5
20240423073041 69 57 4.0 12.0 0.00 0.00 0.00 53 1018.4
20240423072025 69 355 6.0 12.0 0.00 0.00 0.00 52 1018.4
20240423071040 69 16 5.0 11.0 0.00 0.00 0.00 56 1018.6
20240423070059 69 57 5.0 10.0 0.00 0.00 0.00 54 1018.6
20240423065054 69 31 4.0 16.0 0.00 0.00 0.00 55 1018.7
20240423064115 69 14 5.0 16.0 0.00 0.00 0.00 54 1018.7
20240423061920 69 0 5.0 10.0 0.00 0.00 0.00 54 1018.9
20240423055701 69 17 7.0 14.0 0.00 0.00 0.00 52 1019.1
20240423054722 69 44 8.0 14.0 0.00 0.00 0.00 51 1019.3
20240423053646 69 15 8.0 16.0 0.00 0.00 0.00 53 1019.4
20240423052649 69 38 8.0 16.0 0.00 0.00 0.00 54 1019.5
20240423051705 69 355 8.0 16.0 0.00 0.00 0.00 55 1019.6
20240423045621 69 5 9.0 16.0 0.00 0.00 0.00 53 1019.8
20240423044621 69 17 9.0 16.0 0.00 0.00 0.00 55 1019.8
20240423043605 69 15 10.0 17.0 0.00 0.00 0.00 55 1019.8
20240423042541 69 38 9.0 18.0 0.00 0.00 0.00 57 1019.7
20240423041541 69 31 10.0 18.0 0.00 0.00 0.00 55 1019.7
20240423040506 69 0 10.0 18.0 0.00 0.00 0.00 54 1019.8
20240423035506 69 9 11.0 19.0 0.00 0.00 0.00 54 1019.8
20240423034437 69 5 11.0 19.0 0.00 0.00 0.00 55 1019.7
20240423032312 70 0 10.0 19.0 0.00 0.00 0.00 56 1019.6
20240423030133 70 355 11.0 20.0 0.00 0.00 0.00 55 1019.3
20240423025144 70 344 12.0 21.0 0.00 0.00 0.00 57 1019.2
20240423024149 70 21 13.0 24.0 0.00 0.00 0.00 58 1019.1
20240423023157 70 9 13.0 24.0 0.00 0.00 0.00 60 1018.9
20240423022218 70 5 14.0 22.0 0.00 0.00 0.00 59 1018.8
20240423021217 70 11 12.0 21.0 0.00 0.00 0.00 59 1018.7
20240423020222 69 0 11.0 22.0 0.00 0.00 0.00 60 1018.6
20240423015215 69 5 12.0 22.0 0.00 0.00 0.00 61 1018.5
20240423014210 70 0 13.0 22.0 0.00 0.00 0.00 62 1018.4
20240423013209 70 39 13.0 22.0 0.00 0.00 0.00 57 1018.4
20240423012202 69 5 13.0 22.0 0.00 0.00 0.00 60 1018.3
20240423011139 69 336 14.0 22.0 0.00 0.00 0.00 62 1018.2
20240423010128 69 350 13.0 25.0 0.00 0.00 0.00 65 1018.1
20240423005111 69 0 14.0 25.0 0.00 0.00 0.00 64 1018.0
20240423004036 69 0 12.0 22.0 0.00 0.00 0.00 66 1017.8
20240423001849 69 324 13.0 27.0 0.00 0.00 0.00 65 1017.4
20240423000834 69 355 13.0 27.0 0.00 0.00 0.00 65 1017.3
20240422235800 69 326 14.0 23.0 0.00 0.00 0.00 63 1017.2
20240422234734 69 0 14.0 23.0 0.00 0.00 0.00 64 1017.1
20240422233755 70 355 12.0 20.0 0.00 0.00 0.00 62 1016.8
20240422232811 70 11 12.0 22.0 0.00 0.00 0.00 64 1016.7
20240422231759 70 344 11.0 22.0 0.00 0.00 0.00 64 1016.6
20240422225627 71 24 13.0 20.0 0.00 0.00 0.00 62 1016.3
20240422224609 71 15 14.0 22.0 0.00 0.00 0.00 63 1016.2
20240422223621 71 13 13.0 22.0 0.00 0.00 0.00 64 1016.0
20240422222615 71 0 12.0 24.0 0.00 0.00 0.00 65 1015.9
20240422221547 71 347 12.0 24.0 0.00 0.00 0.00 65 1015.9
20240422220522 70 350 13.0 21.0 0.00 0.00 0.00 65 1015.9
20240422213253 71 0 13.0 20.0 0.00 0.00 0.00 64 1015.7
20240422212236 71 0 12.0 21.0 0.00 0.00 0.00 61 1015.6
20240422210057 71 333 13.0 22.0 0.00 0.00 0.00 65 1015.4
20240422205023 71 329 12.0 22.0 0.00 0.00 0.00 66 1015.3
20240422204011 71 355 12.0 22.0 0.00 0.00 0.00 66 1015.3
20240422202950 71 9 12.0 21.0 0.00 0.00 0.00 68 1015.4
20240422201958 71 5 11.0 21.0 0.00 0.00 0.00 68 1015.4
20240422201003 71 11 11.0 19.0 0.00 0.00 0.00 68 1015.4